• In Deutschland
  • Länderverzeichnis
  • Für 7 Tage
  • Wassertemperatur
  • Satellitenkarten
  • Wetterkarte
  • Widgets
  • user-avatar
    Anmelden

    Stündliche Wetter Bad Windsheim

    Heute, 18 Oktober, Mittwoch

    Zeit Temperatur Niederschläge Wind Luftdruck Luftfeuchtigkeit
    00:00 +13°C° 0 mm 1 m/S 733 mmHg 83%
    01:00 +13°C° 0 mm 1 m/S 732 mmHg 83%
    02:00 +12°C° 0 mm 1 m/S 732 mmHg 82%
    03:00 +12°C° 0 mm 1 m/S 732 mmHg 82%
    04:00 +12°C° 0 mm 1 m/S 731 mmHg 81%
    05:00 +12°C° 0 mm 1 m/S 731 mmHg 81%
    06:00 +11°C° 0 mm 1 m/S 731 mmHg 81%
    07:00 +9°C° 0 mm 0 m/S 731 mmHg 76%
    08:00 +12°C° 0 mm 1 m/S 731 mmHg 71%
    09:00 +14°C° 0 mm 1 m/S 731 mmHg 65%
    10:00 +16°C° 0 mm 1 m/S 731 mmHg 59%
    11:00 +19°C° 0 mm 1 m/S 731 mmHg 55%
    12:00 +19°C° 0 mm 2 m/S 731 mmHg 51%
    13:00 +20°C° 0 mm 2 m/S 731 mmHg 47%
    14:00 +20°C° 0 mm 2 m/S 731 mmHg 51%
    15:00 +20°C° 0 mm 1 m/S 730 mmHg 55%
    16:00 +20°C° 0 mm 1 m/S 730 mmHg 58%
    17:00 +18°C° 0 mm 1 m/S 730 mmHg 63%
    18:00 +15°C° 0 mm 1 m/S 730 mmHg 67%
    19:00 +13°C° 0 mm 1 m/S 730 mmHg 72%
    20:00 +13°C° 0 mm 1 m/S 730 mmHg 72%
    21:00 +12°C° 0 mm 1 m/S 730 mmHg 73%
    22:00 +12°C° 0 mm 1 m/S 731 mmHg 74%
    23:00 +12°C° 0 mm 1 m/S 730 mmHg 75%

    Morgen, 19 Oktober, Donnerstag

    Zeit Temperatur Niederschläge Wind Luftdruck Luftfeuchtigkeit
    00:00 +11°C° 0 mm 1 m/S 730 mmHg 76%
    01:00 +11°C° 0 mm 1 m/S 730 mmHg 77%
    02:00 +11°C° 0 mm 1 m/S 730 mmHg 77%
    03:00 +11°C° 0 mm 1 m/S 730 mmHg 77%
    04:00 +10°C° 0 mm 1 m/S 730 mmHg 78%
    05:00 +10°C° 0 mm 1 m/S 730 mmHg 78%
    06:00 +10°C° 0 mm 1 m/S 730 mmHg 78%
    07:00 +10°C° 0 mm 1 m/S 730 mmHg 78%
    08:00 +12°C° 0 mm 2 m/S 730 mmHg 72%
    09:00 +14°C° 0 mm 2 m/S 730 mmHg 67%
    10:00 +16°C° 0 mm 2 m/S 731 mmHg 61%
    11:00 +17°C° 0 mm 2 m/S 731 mmHg 58%
    12:00 +19°C° 0 mm 2 m/S 731 mmHg 55%
    13:00 +20°C° 0 mm 2 m/S 731 mmHg 53%
    14:00 +20°C° 0 mm 2 m/S 730 mmHg 56%
    15:00 +20°C° 0 mm 1 m/S 730 mmHg 60%
    16:00 +20°C° 0 mm 1 m/S 730 mmHg 64%
    17:00 +18°C° 0 mm 1 m/S 730 mmHg 69%
    18:00 +16°C° 0 mm 2 m/S 730 mmHg 74%
    19:00 +14°C° 0 mm 2 m/S 730 mmHg 79%
    20:00 +13°C° 0 mm 2 m/S 730 mmHg 80%
    21:00 +13°C° 0 mm 2 m/S 730 mmHg 81%
    22:00 +12°C° 0 mm 2 m/S 730 mmHg 82%
    23:00 +12°C° 0 mm 2 m/S 730 mmHg 83%

    übermorgen, 20 Oktober, Freitag

    Zeit Temperatur Niederschläge Wind Luftdruck Luftfeuchtigkeit
    00:00 +11°C° 0 mm 1 m/S 730 mmHg 83%
    01:00 +11°C° 0 mm 1 m/S 730 mmHg 84%
    02:00 +11°C° 0 mm 1 m/S 730 mmHg 84%
    03:00 +10°C° 0 mm 1 m/S 730 mmHg 85%
    04:00 +10°C° 0 mm 1 m/S 730 mmHg 86%
    05:00 +10°C° 0 mm 1 m/S 730 mmHg 86%
    06:00 +9°C° 0 mm 1 m/S 730 mmHg 87%
    07:00 +9°C° 0 mm 1 m/S 731 mmHg 88%
    08:00 +10°C° 0 mm 2 m/S 731 mmHg 81%
    09:00 +13°C° 0 mm 2 m/S 731 mmHg 75%
    10:00 +15°C° 0 mm 2 m/S 731 mmHg 68%
    11:00 +16°C° 0 mm 2 m/S 731 mmHg 65%
    12:00 +17°C° 0 mm 2 m/S 731 mmHg 61%
    13:00 +18°C° 0 mm 2 m/S 731 mmHg 58%
    14:00 +19°C° 0 mm 1 m/S 732 mmHg 61%
    15:00 +19°C° 0 mm 1 m/S 732 mmHg 64%
    16:00 +19°C° 0 mm 1 m/S 732 mmHg 67%
    17:00 +16°C° 0 mm 1 m/S 732 mmHg 71%
    18:00 +15°C° 0 mm 1 m/S 732 mmHg 75%
    19:00 +14°C° 0 mm 1 m/S 732 mmHg 80%
    20:00 +13°C° 0,2 mm 1 m/S 733 mmHg 82%
    21:00 +13°C° 0,2 mm 1 m/S 733 mmHg 85%
    22:00 +13°C° 0,2 mm 1 m/S 733 mmHg 87%
    23:00 +13°C° 0 mm 1 m/S 733 mmHg 88%

    21 Oktober, Samstag

    Zeit Temperatur Niederschläge Wind Luftdruck Luftfeuchtigkeit
    00:00 +12°C° 0 mm 1 m/S 733 mmHg 89%
    01:00 +12°C° 0 mm 2 m/S 733 mmHg 89%
    02:00 +12°C° 0 mm 2 m/S 733 mmHg 90%
    03:00 +10°C° 0 mm 2 m/S 732 mmHg 91%
    04:00 +10°C° 0 mm 2 m/S 732 mmHg 91%
    05:00 +10°C° 0 mm 2 m/S 732 mmHg 90%
    06:00 +12°C° 0 mm 2 m/S 732 mmHg 89%
    07:00 +12°C° 0 mm 2 m/S 732 mmHg 88%
    08:00 +12°C° 0 mm 3 m/S 732 mmHg 83%
    09:00 +13°C° 0 mm 3 m/S 732 mmHg 78%
    10:00 +16°C° 0 mm 3 m/S 732 mmHg 72%
    11:00 +17°C° 0 mm 4 m/S 732 mmHg 69%
    12:00 +18°C° 0 mm 4 m/S 732 mmHg 65%
    13:00 +19°C° 0 mm 4 m/S 731 mmHg 61%
    14:00 +19°C° 0 mm 3 m/S 731 mmHg 64%
    15:00 +19°C° 0 mm 3 m/S 731 mmHg 66%
    16:00 +18°C° 0 mm 2 m/S 731 mmHg 69%
    17:00 +17°C° 0,1 mm 3 m/S 731 mmHg 74%
    18:00 +14°C° 0,1 mm 3 m/S 731 mmHg 80%
    19:00 +13°C° 0,1 mm 3 m/S 731 mmHg 86%
    20:00 +13°C° 0,9 mm 3 m/S 731 mmHg 88%
    21:00 +12°C° 0,9 mm 4 m/S 732 mmHg 90%
    22:00 +12°C° 0,9 mm 4 m/S 732 mmHg 92%
    23:00 +11°C° 0,4 mm 4 m/S 732 mmHg 92%

    22 Oktober, Sonntag

    Zeit Temperatur Niederschläge Wind Luftdruck Luftfeuchtigkeit
    00:00 +11°C° 0,4 mm 4 m/S 732 mmHg 91%
    01:00 +11°C° 0,4 mm 3 m/S 733 mmHg 91%
    02:00 +10°C° 0,1 mm 4 m/S 733 mmHg 91%
    03:00 +10°C° 0,1 mm 4 m/S 733 mmHg 90%
    04:00 +8°C° 0,1 mm 4 m/S 733 mmHg 89%
    05:00 +8°C° 0 mm 4 m/S 732 mmHg 90%
    06:00 +8°C° 0 mm 3 m/S 732 mmHg 90%
    07:00 +8°C° 0 mm 3 m/S 732 mmHg 91%
    08:00 +7°C° 0,1 mm 4 m/S 733 mmHg 88%
    09:00 +7°C° 0,1 mm 4 m/S 733 mmHg 85%
    10:00 +8°C° 0,1 mm 5 m/S 733 mmHg 81%
    11:00 +8°C° 0,1 mm 5 m/S 733 mmHg 79%
    12:00 +8°C° 0,1 mm 5 m/S 733 mmHg 77%
    13:00 +9°C° 0,1 mm 5 m/S 733 mmHg 74%
    14:00 +10°C° 0,1 mm 4 m/S 733 mmHg 73%
    15:00 +10°C° 0,1 mm 4 m/S 733 mmHg 72%
    16:00 +10°C° 0,1 mm 3 m/S 733 mmHg 71%
    17:00 +9°C° 0 mm 3 m/S 733 mmHg 75%
    18:00 +8°C° 0 mm 3 m/S 733 mmHg 80%
    19:00 +7°C° 0 mm 3 m/S 734 mmHg 84%
    20:00 +7°C° 0 mm 3 m/S 734 mmHg 85%
    21:00 +5°C° 0 mm 4 m/S 734 mmHg 86%
    22:00 +5°C° 0 mm 4 m/S 734 mmHg 87%
    23:00 +5°C° 0 mm 4 m/S 734 mmHg 88%

    23 Oktober, Montag

    Zeit Temperatur Niederschläge Wind Luftdruck Luftfeuchtigkeit
    00:00 +5°C° 0 mm 4 m/S 734 mmHg 90%
    01:00 +5°C° 0 mm 4 m/S 734 mmHg 92%
    02:00 +5°C° 0 mm 4 m/S 734 mmHg 91%
    03:00 +5°C° 0 mm 4 m/S 734 mmHg 90%
    04:00 +6°C° 0 mm 4 m/S 734 mmHg 90%
    05:00 +6°C° 0,3 mm 4 m/S 734 mmHg 90%
    06:00 +6°C° 0,3 mm 4 m/S 734 mmHg 91%
    07:00 +7°C° 0,3 mm 3 m/S 734 mmHg 91%
    08:00 +7°C° 0,3 mm 3 m/S 734 mmHg 91%
    09:00 +7°C° 0,3 mm 4 m/S 735 mmHg 91%
    10:00 +7°C° 0,3 mm 4 m/S 735 mmHg 90%
    11:00 +8°C° 0,3 mm 4 m/S 735 mmHg 89%
    12:00 +8°C° 0,3 mm 4 m/S 735 mmHg 89%
    13:00 +8°C° 0,3 mm 4 m/S 735 mmHg 88%
    14:00 +8°C° 0,2 mm 4 m/S 735 mmHg 87%
    15:00 +10°C° 0,2 mm 4 m/S 735 mmHg 87%
    16:00 +10°C° 0,2 mm 4 m/S 735 mmHg 86%
    17:00 +9°C° 0,2 mm 3 m/S 735 mmHg 89%
    18:00 +9°C° 0,2 mm 3 m/S 735 mmHg 91%
    19:00 +8°C° 0,2 mm 3 m/S 736 mmHg 94%
    20:00 +8°C° 0,2 mm 3 m/S 736 mmHg 95%
    21:00 +8°C° 0,2 mm 3 m/S 736 mmHg 95%
    22:00 +8°C° 0,2 mm 3 m/S 736 mmHg 96%
    23:00 +8°C° 0,4 mm 3 m/S 736 mmHg 96%
    Mehr zeigen